Home   Weather   Forchheim   Past weeks

Flag for Germany Past Weather in Forchheim, Bavaria, Germany — Yesterday and Last 2 Weeks

Now
66 °F

Passing clouds.


Feels Like: 66 °F
Forecast: 50 / 80 °F
Wind: 3 mph from Northeast

Location: Nuernberg

Current Time: Aug 30, 2016 at 9:12:16 PM

Latest Report: Aug 30, 2016 at 8:50 PM


Visibility: N/A

Pressure: 30.21 "Hg

Humidity: 60%

Dew Point: 52 °F

Location of ForchheimLocation

Past Weather in Forchheim — Graph

°F

Forchheim Temperature Yesterday

Maximum temperature yesterday: 79 °F (at 1:50 PM)
Minimum temperature yesterday: 63 °F (at 10:50 PM)
Average temperature yesterday: 71 °F

High & Low Weather Summary for the Past Weeks

 TemperatureHumidityPressure
High91 °F (Aug 28, 3:50 PM)100% (Aug 16, 3:50 AM)30.42 "Hg (Aug 16, 3:50 AM)
Low46 °F (Aug 18, 5:20 AM)22% (Aug 18, 5:50 PM)29.80 "Hg (Aug 18, 3:20 PM)
Average68 °F65%30.09 "Hg
* Reported Aug 15 7:20 PM — Aug 30 7:50 PM, Forchheim, Weather by CustomWeather, © 2016

Note: Actual official high and low records may vary slightly from our data, if they occured in-between our weather recording intervals... More about our weather records

Advertising

Forchheim Weather History for the Previous 24 Hours

Scroll right to see more
 ConditionsComfort  
Time TempWeatherWind HumidityBarometerVisibility
7:50 PM
Tue, Aug 30
72 °FSunny.2 mph50%30.21 "Hg10 mi
7:20 PM73 °FSunny.2 mph44%30.21 "Hg10 mi
6:50 PM73 °FPassing clouds.3 mph41%30.21 "HgN/A
6:20 PM75 °FSunny.3 mph41%30.21 "Hg10 mi
5:50 PM73 °FPassing clouds.6 mph44%30.21 "HgN/A
5:20 PM77 °FPassing clouds.3 mph36%30.21 "HgN/A
4:50 PM75 °FSunny.3 mph44%30.21 "Hg10 mi
4:20 PM75 °FSunny.3 mph41%30.24 "Hg10 mi
3:50 PM75 °FSunny.5 mph44%30.24 "Hg10 mi
3:20 PM75 °FSunny.6 mph41%30.24 "Hg10 mi
2:50 PM73 °FSunny.6 mph47%30.24 "Hg10 mi
2:20 PM73 °FSunny.6 mph47%30.27 "Hg10 mi
1:50 PM73 °FScattered clouds.3 mph44%30.27 "HgN/A
1:20 PM73 °FScattered clouds.6 mph50%30.27 "HgN/A
12:50 PM72 °FScattered clouds.5 mph50%30.27 "HgN/A
12:20 PM73 °FPassing clouds.5 mph53%30.27 "HgN/A
11:50 AM72 °FPassing clouds.5 mph53%30.27 "HgN/A
11:20 AM70 °FPassing clouds.6 mph57%30.27 "HgN/A
10:50 AM68 °FPassing clouds.7 mph60%30.30 "HgN/A
10:20 AM68 °FPassing clouds.7 mph60%30.30 "HgN/A
9:50 AM66 °FPassing clouds.6 mph64%30.27 "HgN/A
9:20 AM64 °FPassing clouds.5 mph68%30.27 "HgN/A
8:50 AM61 °FSunny.3 mph83%30.27 "Hg10 mi
8:20 AM59 °FFog.1 mph88%30.27 "HgN/A
7:50 AM57 °FFog.No wind94%30.27 "HgN/A
7:20 AM55 °FFog.No wind94%30.24 "HgN/A
6:50 AM54 °FFog.1 mph100%30.24 "HgN/A
6:20 AM54 °FFog.2 mph94%30.24 "HgN/A
5:50 AM54 °FFog.1 mph100%30.24 "HgN/A
5:20 AM55 °FFog.1 mph94%30.21 "HgN/A
4:50 AM55 °FClear.1 mph94%30.21 "Hg10 mi
4:20 AM55 °FClear.1 mph94%30.21 "Hg10 mi
3:50 AM55 °FClear.2 mph94%30.21 "Hg10 mi
3:20 AM55 °FClear.1 mph94%30.21 "Hg10 mi
2:50 AM57 °FClear.1 mph88%30.21 "Hg10 mi
2:20 AM57 °FClear.1 mph94%30.21 "Hg10 mi
1:50 AM57 °FClear.2 mph88%30.21 "Hg10 mi
1:20 AM59 °FClear.1 mph82%30.21 "Hg10 mi
12:50 AM59 °FClear.1 mph88%30.21 "Hg10 mi
12:20 AM63 °FClear.2 mph73%30.18 "Hg10 mi
11:50 PM
Mon, Aug 29
63 °FClear.1 mph77%30.18 "Hg10 mi
11:20 PM63 °FClear.2 mph77%30.18 "Hg10 mi
10:50 PM63 °FClear.2 mph77%30.18 "Hg10 mi
10:20 PM64 °FClear.No wind68%30.18 "Hg10 mi
9:50 PM66 °FClear.1 mph64%30.15 "Hg10 mi
9:20 PM68 °FClear.1 mph64%30.15 "Hg10 mi
Weather by CustomWeather, © 2016

See weather overviewHow to use our weather pages